Regional Weather Roundup
Issued by NWS

Home | Current Version | Previous Version | Text Only | Print | Product List | Glossary Off
Versions: 1 2 3 4 5 6 7 8 9 10 11 12 13 14 15 16 17 18 19 20 21 22 23 24 25 26 27 28 29 30 31 32 33 34 35 36 37 38 39 40 41 42 43 44 45 46 47 48 49 50

000
ASUS43 KIND 010909
RWRIN

WEATHER ROUNDUP FOR INDIANA
NATIONAL WEATHER SERVICE INDIANAPOLIS IN
500 AM EDT WED JUL 01 2015

NOTE: "FAIR" INDICATES FEW OR NO CLOUDS BELOW 12,000 FEET WITH NO
SIGNIFICANT WEATHER AND/OR OBSTRUCTIONS TO VISIBILITY.

* - STATION DOES NOT REPORT WEATHER SUCH AS PRECIPITATION OR FOG.

+ - STATION NOT QUALITY CONTROLLED BY THE NATIONAL WEATHER SERVICE.
    USE DATA WITH CAUTION...ESPECIALLY DEWPOINT AND RELATIVE
    HUMIDITY OBSERVATIONS.

INZ001>003-010>013-019-020-011000-
NORTHWEST INDIANA

CITY           SKY/WX    TMP DP  RH WIND       PRES   REMARKS
GARY /AIRPORT/ PTCLDY   N/A N/A N/A N8        29.94R
KNOX *+        PTCLDY    55  55 100 NW5       29.90S
LA PORTE +     MOCLDY    58  58 100 NW3       29.92S
MICHIGAN CITY+ PTCLDY    55  55 100 N3        29.93S
MONTICELLO +   CLEAR     57  57 100 CALM      29.90F
RENSSELAER +   PTCLDY    59  59 100 NW3       29.92S FOG
VALPARAISO     CLOUDY    58  55  90 NW5       29.92S

$$

LMZ046-743>745-011000-
SOUTHERN LAKE MICHIGAN

STATION/POSITION TIME  TEMP    WIND        PRES    WAVE
                       AIR SEA DIR/SP/G            HT
                 (UTC) (F)     (DEG/KT/KT) (MB)    (FT)
BURNS HARBOR     0900   59      10/ 10/ 12 1013.9S
MICHIGAN CITY    0900   58     330/ 13/ 14   N/A
5NW MICH CITY    0900   59 65  360/ 10/ 12   N/A     3

$$

INZ004-005-014>016-021>024-011000-
NORTH CENTRAL INDIANA

CITY           SKY/WX    TMP DP  RH WIND       PRES   REMARKS
GOSHEN         CLEAR     56  54  93 W9        29.89S
LOGANSPORT +   CLEAR     55  54  94 CALM      29.91F
PERU/GRISSOM   CLEAR     58  56  94 W5        29.90R
ROCHESTER +    PTCLDY    59  59 100 CALM      29.91S
SOUTH BEND     PTCLDY    57  56  96 W9        29.92R
WARSAW +         N/A     55  54  94 W5        29.90S

$$

INZ006>009-017-018-025>027-011000-
NORTHEAST INDIANA

CITY           SKY/WX    TMP DP  RH WIND       PRES   REMARKS
ANGOLA *+      PTCLDY    55  55 100 W5        29.87S
AUBURN +       CLEAR     55  54  94 W5        29.88S
FORT WAYNE     PTCLDY    58  56  93 NW6       29.89R
HUNTINGTON +   CLEAR     57  56  94 CALM      29.89S

$$

INZ028-029-035-036-043>045-051>053-011000-
WEST CENTRAL INDIANA

CITY           SKY/WX    TMP DP  RH WIND       PRES   REMARKS
CRAWFORDSVL +  PTCLDY    58  57  98 NE3       29.91S FOG
GREENCASTLE +  PTCLDY    63  59  88 CALM      29.90F
LAFAYETTE      PTCLDY    60  56  86 NE6       29.90F
TERRE HAUTE    MOCLDY    62  62 100 CALM      29.89S FOG

$$

INZ030>032-037>040-046>048-054>057-064-065-011000-
CENTRAL INDIANA

CITY           SKY/WX    TMP DP  RH WIND       PRES   REMARKS
CP ATTERBURY + CLEAR     59  59 100 CALM      29.90S FOG
FISHERS *+     PTCLDY    59  59 100 CALM      29.90S
FRANKFORT +    CLEAR    N/A N/A N/A CALM      29.93S
GREENWOOD *+   CLEAR     61  59  94 CALM      29.90F
INDIANAPOLIS   MOCLDY    64  60  87 N5        29.88F
-EAGLE CREEK   CLEAR     63  60  90 N3        29.89F
KOKOMO *+      CLEAR     57  55  94 NW6       29.91S
MARION +       CLEAR     58  57  96 NW5       29.91S
MT COMFORT *+  PTCLDY    61 N/A N/A CALM      29.90F
SHELBYVILLE    CLEAR     61  58  90 N6        29.89S FOG
ZIONSVILLE +   CLEAR     60  57  89 CALM      29.91F FOG

$$

INZ033-034-041-042-049-050-058-059-011000-
EAST CENTRAL INDIANA

CITY           SKY/WX    TMP DP  RH WIND       PRES   REMARKS
MUNCIE         CLEAR     61  58  90 W5        29.90S

$$

INZ060-061-067>069-081>083-085>088-011000-
SOUTHWEST INDIANA

CITY           SKY/WX    TMP DP  RH WIND       PRES   REMARKS
EVANSVILLE     MOCLDY    72  68  87 W6        29.89F
HUNTINGBURG *+ PTCLDY    68  64  88 S3        29.89S
WASHINGTON +   MOCLDY    65  62  88 CALM      29.88F FOG

$$

INZ062-063-066-070>080-084-089>092-011000-
SOUTH CENTRAL AND SOUTHEAST INDIANA

CITY           SKY/WX    TMP DP  RH WIND       PRES   REMARKS
BLOOMINGTON    FOG       60  59  96 CALM      29.90S VSB 1/2
MADISON *+       N/A     63  61  94 CALM      29.91S VSB 1/2
NORTH VERNON + FOG       61  61 100 CALM      29.90S VSB 1/4
SEYMOUR +      FOG       63  63 100 CALM      29.89S VSB 1/4

$$



USA.gov is the U.S. government's official web portal to all federal, state and local government web resources and services.